Tracking 29892 objects as of 21-Nov-2024
HD Live streaming from Space Station
objects crossing your sky now

STARLINK-11104

Track STARLINK-11104 now!
10-day predictions
STARLINK-11104 is classified as:


NORAD ID: 59763
Int'l Code: 2024-091L
Perigee: 366.0 km
Apogee: 367.7 km
Inclination: 53.2 °
Period: 91.7 minutes
Semi major axis: 6737 km
RCS: Unknown
Launch date: May 14, 2024
Source: United States (US)
Launch site: AIR FORCE WESTERN TEST RANGE (AFWTR)
Your satellite tracking list
Your tracking list is empty




NASA's NSSDC Master Catalog

Two Line Element Set (TLE):
1 59763U 24091L   24325.58937495  .00003511  00000-0  33818-4 0  9999
2 59763  53.1561  23.1711 0001277 107.8961 252.2196 15.69717112 31064
Source of the keplerian elements: AFSPC